Voltar ao catálogo

STARLINK-5964

AtivoComunicaçõesVLEO
NORAD 56009·PAYLOAD·🇺🇸 United States

Lançado Mar 24, 2023 de Cape Canaveral Space Force Station

Loading…

Próximas Passagens (próximas 24 horas)

TLE

AtualizadoSource: CelesTrak SupGP

Época: Sep 14, 2026, 21:55 UTC

1 56009C 23042Z   26257.91368056  .00056919  00000+0  20614-2 0  2572
2 56009  43.0039  74.3978 0001787 274.2324 264.3439 15.27553023    11

Acompanhe STARLINK-5964 em tempo real com AllMySat

Download on the App Store